Location: Santa Cristina
(46.5667°N, 11.7167°E)
Time: 03:53:05
(UTC+00:00)

Cosmos 2218 Rocket - Pass Details

Date: 21 April 2021
Orbit: 955 x 1007 km, 82.9° (Epoch: 10 May)

Event Time Altitude Azimuth Distance (km) Brightness Sun altitude
Rises 00:58:04 0° 348° (NNW) 3,648 7.7 -26.9°
Reaches altitude 10° 01:00:35 10° 345° (NNW) 2,701 6.9 -26.7°
Maximum altitude 01:06:38 60° 267° (W) 1,094 4.0 -26.2°
Enters shadow 01:07:00 59° 251° (WSW) 1,104 4.0 -26.1°
